Volver al catálogo

TITAN 3C TRANSTAGE R/B

ActivoMEO
NORAD 6976·ROCKET BODY·🇺🇸 United States

Lanzado Dec 13, 1973 desde Cape Canaveral Space Force Station

Loading…

Próximos Pases (próximas 24 horas)

TLE

ActualizadoSource: Space-Track

Época: Sep 14, 2026, 07:00 UTC

1 06976U 73100D   26257.29189105 -.00000207  00000-0  00000-0 0  9996
2 06976   6.2639 283.1029 0268400 136.8725  45.8641  0.94996994112587

Sigue TITAN 3C TRANSTAGE R/B en tiempo real con AllMySat

Download on the App Store